Погода в Таормине

Италия     37°51′18″N   15°17′27″E
темп.,
°C
ветер,
м/с
пор.,
м/с
влажн.,
%
обл.,
%
осадки,
мм/ч
давл.,
гПа
погр.,
м
26 июля, пн
пн2623:00+25ссз01550 0.0 101511
02:00+24с11540 0.0 101411
05:00+24с22532 0.0 101420
08:00+27в11504 0.0 1016131
11:00+28вюв32471 0.0 1017309
14:00+28юв33450 0.0 1016317
17:00+27юв12460 0.0 1017244
20:00+24ссв22620 0.0 101732
27 июля, вт
вт2723:00+26с22480 0.0 101717
02:00+25ссз22520 0.0 101621
05:00+25сз11490 0.0 101612
08:00+28вюв11440 0.0 101789
11:00+31вюв21380 0.0 1017432
14:00+31ююв22360 0.0 1017469
17:00+31юв12370 0.0 1016383
20:00+28зсз11480 0.0 101611
28 июля, ср
ср2823:00+28сз22410 0.0 101612
02:00+27зсз22400 0.0 101515
05:00+27зсз22400 0.0 101419
08:00+30всв11380 0.0 1015108
11:00+32юв22340 0.0 1015478
14:00+33юв23320 0.0 1015506
17:00+33вюв22330 0.0 1014468
20:00+29сз11440 0.0 101421
29 июля, чт
чт2923:00+28зсз22410 0.0 101520
02:00+28зсз22390 0.0 101422
05:00+28зсз22390 0.0 101318
08:00+32ююз01330 0.0 1014123
11:00+33ююв22320 0.0 1014679
14:00+34ююв22300 0.0 1014950
17:00+34ю23340 0.0 1013789
20:00+30зсз11400 0.0 101316
30 июля, пт
пт3023:00+29зсз22360 0.0 101319
02:00+29зсз22360 0.0 101217
05:00+29зсз32330 0.0 101116
08:00+32сз01300 0.0 1012108
11:00+34ююв21290 0.0 1013670
14:00+35в33260 0.0 1012786
17:00+34ююв12310 0.0 1011337
20:00+31з12340 0.0 101111